This is the latest recevied weather packets stored in our database for station/object 9M4GHZ-13. If no packets are shown the sender has not sent any weather packets the latest 10 day(s).
| Time | Temp. | Humidity | Pressure | Rain* | Wind** | Luminosity | Snow |
|---|---|---|---|---|---|---|---|
| 1777985405 | 27.78° C | 81% | 1008.6 hPa | - | - | - | - |
| 1777984804 | 28.33° C | 81% | 1008.4 hPa | - | - | - | - |
| 1777984205 | 28.33° C | 83% | 1008.3 hPa | - | - | - | - |
| 1777983605 | 28.89° C | 83% | 1007.9 hPa | - | - | - | - |
| 1777983005 | 28.33° C | 83% | 1007.7 hPa | - | - | - | - |
| 1777982403 | 28.33° C | 83% | 1007.7 hPa | - | - | - | - |
| 1777981804 | 28.33° C | 82% | 1007.4 hPa | - | - | - | - |
| 1777981205 | 28.33° C | 82% | 1007.2 hPa | - | - | - | - |
| 1777980604 | 28.33° C | 83% | 1007.1 hPa | - | - | - | - |
| 1777980005 | 28.89° C | 81% | 1006.8 hPa | - | - | - | - |
| 1777979406 | 28.89° C | 81% | 1006.9 hPa | - | - | - | - |
| 1777978804 | 28.89° C | 80% | 1006.8 hPa | - | - | - | - |
| 1777978203 | 28.89° C | 79% | 1006.5 hPa | - | - | - | - |
| 1777977604 | 28.89° C | 79% | 1006.1 hPa | - | - | - | - |
| 1777977005 | 29.44° C | 78% | 1006.1 hPa | - | - | - | - |
| 1777976403 | 29.44° C | 77% | 1006 hPa | - | - | - | - |
| 1777975805 | 30° C | 76% | 1005.9 hPa | - | - | - | - |
| 1777975205 | 30° C | 76% | 1005.7 hPa | - | - | - | - |
| 1777974604 | 30° C | 76% | 1005.8 hPa | - | - | - | - |
| 1777974005 | 30.56° C | 75% | 1005.5 hPa | - | - | - | - |
| 1777973405 | 30.56° C | 75% | 1005.6 hPa | - | - | - | - |
| 1777972803 | 30.56° C | 74% | 1005.6 hPa | - | - | - | - |
| 1777972205 | 31.11° C | 74% | 1005.6 hPa | - | - | - | - |
| 1777971605 | 31.11° C | 73% | 1005.5 hPa | - | - | - | - |
| 1777971004 | 31.11° C | 74% | 1005.3 hPa | - | - | - | - |
* Rain since midnight (hover to see other rain measurements)
** Current wind speed in m/s (hover to see current wind gust speed)